Tracking 28764 objects as of 12-Apr-2024
HD Live streaming from Space Station
objects crossing your sky now

METEOR 2-17 DEB

Track METEOR 2-17 DEB now!
10-day predictions


NORAD ID: 35365
Int'l Code: 1988-005Z
Perigee: 912.9 km
Apogee: 917.1 km
Inclination: 82.5 °
Period: 103.2 minutes
Semi major axis: 7285 km
RCS: 0.0068 m2 (small)
Launch date: January 30, 1988
Source: Commonwealth of Independent States (former USSR) (CIS)
Launch site: PLESETSK MISSILE AND SPACE COMPLEX (PKMTR)

Note: This is SATELLITE DEBRIS
Your satellite tracking list
Your tracking list is empty




NASA's NSSDC Master Catalog

Two Line Element Set (TLE):
1 35365U 88005Z   24101.54507007  .00002724  00000-0  19806-2 0  9990
2 35365  82.5119 189.9916 0002881 357.6982  62.6114 13.95954669508574
Source of the keplerian elements: AFSPC